[[{"header":{"parameterUnit":"m.s-1","parameterCategory":1,"la1":30.2991,"la2":30.254,"lo1":-89.0895,"lo2":-89.0444,"dy":0.0017,"dx":0.0017,"nx":28,"ny":28,"refTime":"2025-03-19T03:00:00:Z","depth":0,"parameterNumber":2,"parameterNumberName":"U-component_of_WINDS"},"data":[0,0,0,0,0,0,0,0,0,0,0,0,0,0,0,0,0,0,0,0,0,0,0,0,0,0,0,0,0,0,0,0,0,0,0,0,0,0,0,0,0,0,0,0,0,0,0,0,0,0,0,0,0,0,0,0,0,0,-0.4229,-0.4229,0,-0.4228,-0.4228,-0.4228,-0.4229,-0.4229,-0.4229,-0.4229,-0.4228,-0.4228,-0.4228,0,0,0,0,0,0,0,0,0,0,0,0,0,-0.4233,-0.4233,-0.4229,-0.4229,-0.4229,-0.4228,-0.4228,-0.4228,-0.4229,-0.4229,-0.4229,-0.4229,-0.4228,-0.4228,-0.4228,0,0,0,0,0,0,0,0,0,0,0,0,0,-0.4231,-0.4233,-0.4229,-0.4229,-0.4229,-0.4228,-0.4228,-0.4228,-0.4229,-0.4229,-0.4229,-0.4229,-0.4228,-0.4228,-0.4228,-0.4226,0,0,-0.4228,-0.4228,0,0,0,0,0,0,0,0,-0.4232,-0.4231,-0.4229,-0.4229,-0.4229,-0.4229,-0.4229,-0.4227,-0.4229,-0.4229,-0.4229,-0.4229,-0.4228,-0.4228,-0.4228,-0.4226,-0.4226,-0.4228,-0.4228,-0.4228,-0.4227,0,0,0,0,0,0,0,-0.4232,-0.4231,-0.4228,-0.4229,-0.4229,-0.423,-0.423,-0.4228,-0.4228,-0.4229,-0.4229,-0.4229,-0.4228,-0.4228,-0.4228,-0.4226,-0.4228,-0.4228,-0.4227,-0.4227,-0.4223,-0.4222,0,0,0,0,0,0,-0.4232,-0.4231,-0.4228,-0.4228,-0.4231,-0.423,-0.423,-0.4229,-0.4228,-0.4228,-0.4229,-0.4229,-0.4228,-0.4228,-0.4228,-0.4226,-0.4228,-0.4227,-0.4227,-0.4223,-0.4222,-0.4222,0,0,0,0,0,0,-0.4232,-0.4231,-0.4229,-0.423,-0.423,-0.423,-0.4229,-0.4229,-0.4228,-0.4228,-0.4228,-0.4229,-0.4228,-0.4228,-0.4226,-0.4226,-0.4227,-0.4227,-0.4223,-0.4223,-0.4222,-0.4221,0,0,0,0,0,0,-0.4232,-0.4231,-0.423,-0.423,-0.423,-0.4227,-0.4229,-0.4229,-0.4228,-0.4228,-0.4228,-0.4228,-0.4228,-0.4227,-0.4226,-0.4225,-0.4227,-0.4223,-0.4223,-0.4222,-0.4221,-0.4221,-0.4221,0,0,0,0,0,-0.4232,-0.423,-0.423,-0.423,-0.4228,-0.4227,-0.4227,-0.4227,-0.4228,-0.4227,-0.4227,-0.4228,-0.4226,-0.4226,-0.4226,-0.4225,-0.4223,-0.4223,-0.4222,-0.4221,-0.4221,-0.4221,0,0,0,0,0,0,-0.423,-0.423,-0.423,-0.4228,-0.4227,-0.4227,-0.4226,-0.4227,-0.4226,-0.4226,-0.4227,-0.4227,-0.4225,-0.4225,-0.4226,-0.4223,-0.4224,-0.4224,-0.4223,-0.4223,-0.4223,-0.4223,-0.4227,0,0,0,0,0,-0.4229,-0.4228,-0.4228,-0.4226,-0.4226,-0.4226,-0.4225,-0.4226,-0.4225,-0.4225,-0.4225,-0.4225,-0.4224,-0.4224,-0.4223,-0.4221,-0.4221,-0.422,-0.422,-0.422,-0.422,-0.4219,-0.4219,-0.4222,-0.4222,-0.4222,0,0,-0.4228,-0.4227,-0.4227,-0.4225,-0.4225,-0.4224,-0.4226,-0.4224,-0.4224,-0.4225,-0.4224,-0.4224,-0.4223,-0.4222,-0.4221,-0.4222,-0.4219,-0.422,-0.422,-0.4219,-0.4219,-0.4219,-0.4219,-0.4222,-0.4222,-0.4222,0,0,-0.4224,-0.4224,-0.4222,-0.4222,-0.4222,-0.4222,-0.4222,-0.4222,-0.4222,-0.4221,-0.4222,-0.4221,-0.422,-0.422,-0.4219,-0.4217,-0.4218,-0.4217,-0.4215,-0.4215,-0.4215,-0.4215,-0.4214,-0.4214,-0.4217,-0.4217,-0.4217,0,-0.4222,-0.4221,-0.4221,-0.422,-0.422,-0.4221,-0.422,-0.422,-0.4219,-0.4219,-0.422,-0.4219,-0.4219,-0.4217,-0.4217,-0.4217,-0.4216,-0.4217,-0.4215,-0.4215,-0.4214,-0.4214,-0.4214,-0.4217,-0.4217,-0.4217,-0.4217,0,-0.4219,-0.4218,-0.4217,-0.4216,-0.4216,-0.4215,-0.4216,-0.4215,-0.4216,-0.4216,-0.4215,-0.4215,-0.4215,-0.4215,-0.4215,-0.4214,-0.4214,-0.4215,-0.4216,-0.4214,-0.4214,-0.4213,-0.4216,-0.4216,-0.4216,-0.4216,0,0,-0.4214,-0.4214,-0.4214,-0.4214,-0.4214,-0.4214,-0.4213,-0.4212,-0.4212,-0.4212,-0.4212,-0.4211,-0.4212,-0.4212,-0.4212,-0.4212,-0.421,-0.4213,-0.4213,-0.4212,-0.4209,-0.4209,-0.4209,-0.4211,-0.4211,-0.4211,-0.4209,0,-0.4211,-0.4209,-0.421,-0.4209,-0.4208,-0.4209,-0.4209,-0.4209,-0.4209,-0.4209,-0.421,-0.4209,-0.421,-0.421,-0.421,-0.4211,-0.421,-0.4211,-0.4211,-0.4211,-0.4211,-0.4208,-0.4208,-0.4206,-0.4209,-0.4209,-0.4209,0,-0.4207,-0.4207,-0.4205,-0.4206,-0.4206,-0.4205,-0.4206,-0.4205,-0.4206,-0.4206,-0.4206,-0.4207,-0.4207,-0.4208,-0.4208,-0.4208,-0.4208,-0.4209,-0.4209,-0.4209,-0.421,-0.4209,-0.4206,-0.4206,-0.4209,-0.4209,-0.4209,0,-0.4204,-0.4203,-0.4203,-0.4203,-0.4204,-0.4203,-0.4204,-0.4204,-0.4204,-0.4204,-0.4204,-0.4205,-0.4205,-0.4205,-0.4206,-0.4207,-0.4206,-0.4207,-0.4206,-0.4206,-0.4206,-0.4206,-0.4203,-0.4206,-0.4206,-0.4206,-0.4206,0,-0.4201,-0.42,-0.4201,-0.4201,-0.42,-0.4201,-0.4201,-0.4201,-0.4202,-0.4202,-0.4203,-0.4203,-0.4204,-0.4204,-0.4205,-0.4205,-0.4205,-0.4205,-0.4206,-0.4205,-0.4205,-0.4205,-0.4205,-0.4206,-0.4206,-0.4206,-0.4206,0,-0.4197,-0.4198,-0.4197,-0.4198,-0.4199,-0.4198,-0.4199,-0.4199,-0.42,-0.4199,-0.42,-0.4201,-0.4201,-0.4202,-0.4203,-0.4203,-0.4203,-0.4203,-0.4203,-0.4203,-0.4202,-0.4202,-0.42,-0.42,-0.4202,-0.4202,-0.4202,0,-0.4195,-0.4194,-0.4195,-0.4195,-0.4196,-0.4196,-0.4196,-0.4197,-0.4198,-0.4198,-0.4198,-0.4199,-0.4199,-0.4199,-0.42,-0.4201,-0.4201,-0.4201,-0.4201,-0.4201,-0.4202,-0.4202,-0.4202,-0.42,-0.42,-0.42,-0.42,0,-0.4191,-0.4192,-0.4192,-0.4193,-0.4193,-0.4193,-0.4194,-0.4194,-0.4195,-0.4195,-0.4196,-0.4196,-0.4197,-0.4197,-0.4198,-0.4199,-0.42,-0.42,-0.42,-0.42,-0.4199,-0.42,-0.4202,-0.42,-0.42,-0.42,-0.42,-0.42,-0.4188,-0.4188,-0.4189,-0.4189,-0.419,-0.4191,-0.4191,-0.4192,-0.4192,-0.4193,-0.4194,-0.4194,-0.4195,-0.4196,-0.4197,-0.4197,-0.4198,-0.4198,-0.4198,-0.4198,-0.4198,-0.4199,-0.4197,-0.4197,-0.4197,-0.4197,-0.4197,0,-0.4185,-0.4186,-0.4186,-0.4187,-0.4187,-0.4189,-0.4189,-0.419,-0.419,-0.4191,-0.4191,-0.4192,-0.4193,-0.4194,-0.4195,-0.4195,-0.4196,-0.4195,-0.4195,-0.4195,-0.4197,-0.4197,-0.4195,-0.4195,-0.4195,-0.4195,-0.4195,-0.4195,-0.4183,-0.4183,-0.4184,-0.4184,-0.4185,-0.4186,-0.4186,-0.4187,-0.4188,-0.4188,-0.4189,-0.419,-0.4191,-0.4192,-0.4193,-0.4193,-0.4194,-0.4193,-0.4194,-0.4195,-0.4195,-0.4196,-0.4196,-0.4193,-0.4193,-0.4192,-0.4192,-0.4192]},{"header":{"parameterUnit":"m.s-1","parameterCategory":1,"la1":30.2991,"la2":30.254,"lo1":-89.0895,"lo2":-89.0444,"dy":0.0017,"dx":0.0017,"nx":28,"ny":28,"refTime":"2025-03-19T03:00:00:Z","depth":0,"parameterNumber":3,"parameterNumberName":"V-component_of_WINDS"},"data":[0,0,0,0,0,0,0,0,0,0,0,0,0,0,0,0,0,0,0,0,0,0,0,0,0,0,0,0,0,0,0,0,0,0,0,0,0,0,0,0,0,0,0,0,0,0,0,0,0,0,0,0,0,0,0,0,0,0,7.9551,7.9553,0,7.9679,7.9681,7.9682,7.9634,7.9631,7.9628,7.9625,7.975,7.9755,7.9761,0,0,0,0,0,0,0,0,0,0,0,0,0,7.9259,7.9264,7.9551,7.9553,7.9554,7.9679,7.9681,7.9682,7.9634,7.9631,7.9627,7.9624,7.9748,7.9755,7.9762,0,0,0,0,0,0,0,0,0,0,0,0,0,7.9386,7.9266,7.9551,7.9546,7.9546,7.9679,7.9681,7.9683,7.9635,7.9631,7.9626,7.9622,7.9745,7.9754,7.9763,7.9906,0,0,7.979,7.9794,0,0,0,0,0,0,0,0,7.9379,7.9397,7.9545,7.9546,7.9547,7.9636,7.9623,7.9757,7.9636,7.9601,7.9625,7.962,7.9715,7.9726,7.9759,7.9911,7.9917,7.9791,7.9797,7.9801,7.9803,0,0,0,0,0,0,0,7.937,7.9391,7.9601,7.9547,7.9549,7.9535,7.9548,7.9648,7.9681,7.9604,7.9601,7.9617,7.9715,7.9751,7.9762,7.9919,7.9791,7.9799,7.9805,7.9808,8.0193,8.0198,0,0,0,0,0,0,7.9362,7.9384,7.9597,7.9605,7.9451,7.9544,7.9558,7.9612,7.968,7.9686,7.9621,7.9614,7.9738,7.9752,7.9766,7.9937,7.98,7.9809,7.9814,8.0188,8.0194,8.0199,0,0,0,0,0,0,7.9356,7.9381,7.9592,7.9494,7.952,7.9553,7.9614,7.9617,7.9653,7.9692,7.9697,7.9652,7.9735,7.9753,7.9872,7.9941,7.9813,7.9821,8.0183,8.019,8.0197,8.0281,0,0,0,0,0,0,7.9347,7.9379,7.9435,7.9496,7.9525,7.9698,7.9618,7.9622,7.967,7.9663,7.9723,7.9729,7.9733,7.9858,7.9881,7.9951,7.9828,8.0177,8.0186,8.0195,8.0272,8.029,8.0306,0,0,0,0,0,7.9337,7.9453,7.9439,7.9465,7.9597,7.9702,7.9719,7.9723,7.9675,7.9731,7.9756,7.9727,7.993,7.9871,7.9895,7.997,8.0172,8.0183,8.0194,8.0265,8.0287,8.0305,0,0,0,0,0,0,7.9397,7.946,7.9445,7.9584,7.9639,7.9694,7.9764,7.9746,7.9813,7.9803,7.9804,7.9818,7.9939,7.9966,7.9899,8.0111,8.0044,8.006,8.0089,8.011,8.0127,8.0117,7.9836,0,0,0,0,0,7.9427,7.951,7.9559,7.9677,7.9705,7.973,7.9776,7.9775,7.983,7.9852,7.9886,7.9939,8.0014,8.0064,8.0135,8.0276,8.0288,8.0339,8.0356,8.037,8.0383,8.0459,8.0482,8.0235,8.0235,8.0235,0,0,7.9488,7.9533,7.9585,7.969,7.9732,7.9816,7.975,7.9841,7.9902,7.9865,7.9979,8.0006,8.0065,8.0195,8.0254,8.0221,8.0454,8.0383,8.0394,8.04,8.0472,8.0496,8.0516,8.0242,8.0241,8.024,0,0,7.9643,7.9686,7.9789,7.9833,7.9898,7.9914,7.9939,7.9997,8.0014,8.0129,8.0103,8.0175,8.0306,8.0349,8.0387,8.0559,8.0534,8.0583,8.067,8.0743,8.0763,8.078,8.0841,8.0862,8.0596,8.0596,8.0597,0,7.9711,7.9838,7.9843,7.9937,7.9984,7.9957,8.006,8.0101,8.0185,8.0217,8.018,8.0343,8.0381,8.052,8.0562,8.0595,8.0622,8.0575,8.076,8.0777,8.0793,8.0851,8.0874,8.0602,8.0601,8.0601,8.06,0,7.9918,8.0006,8.0081,8.0166,8.022,8.0318,8.0336,8.0391,8.0385,8.0404,8.0521,8.0566,8.0646,8.0679,8.0673,8.0818,8.0795,8.0759,8.0691,8.0822,8.0876,8.0899,8.061,8.0608,8.0606,8.0605,0,0,8.0113,8.0201,8.0228,8.0266,8.0336,8.0403,8.0499,8.058,8.0626,8.0685,8.0764,8.0876,8.0844,8.0888,8.0886,8.0951,8.1084,8.0907,8.0908,8.0938,8.1245,8.1271,8.1296,8.1068,8.1073,8.1076,8.1239,0,8.0273,8.0444,8.0452,8.0606,8.0687,8.0663,8.0746,8.0797,8.0818,8.0888,8.0909,8.0989,8.094,8.0967,8.103,8.1055,8.1145,8.1043,8.114,8.1144,8.1126,8.1325,8.1353,8.1505,8.1261,8.1264,8.1267,0,8.0482,8.0551,8.0714,8.0773,8.0807,8.0882,8.0957,8.1025,8.1081,8.1092,8.1142,8.1131,8.1227,8.1157,8.1289,8.1219,8.1259,8.1277,8.1283,8.1291,8.1213,8.1338,8.1554,8.1576,8.13,8.1298,8.1295,0,8.0608,8.074,8.0855,8.0888,8.096,8.1013,8.1045,8.1098,8.1146,8.121,8.1241,8.1315,8.1355,8.1412,8.1421,8.137,8.1553,8.1483,8.1562,8.1562,8.1601,8.1598,8.1826,8.1629,8.1628,8.1628,8.1628,0,8.0785,8.0886,8.0913,8.0983,8.1095,8.1102,8.1211,8.1239,8.1286,8.136,8.1343,8.1412,8.142,8.1492,8.1499,8.1606,8.1624,8.1634,8.1635,8.1636,8.1634,8.1661,8.165,8.1634,8.1633,8.1632,8.163,0,8.0944,8.0966,8.1089,8.1148,8.1165,8.1244,8.1293,8.136,8.1379,8.1473,8.1495,8.1524,8.1607,8.1622,8.1719,8.1724,8.1852,8.1842,8.1834,8.1832,8.191,8.1902,8.2162,8.2196,8.1977,8.198,8.1981,0,8.1055,8.1132,8.12,8.1249,8.1284,8.1364,8.1414,8.1423,8.1475,8.1546,8.1604,8.1685,8.1751,8.1884,8.1912,8.1986,8.1978,8.2064,8.1988,8.1987,8.1978,8.1973,8.198,8.2077,8.208,8.2082,8.2083,0,8.125,8.1258,8.1331,8.1409,8.1469,8.153,8.1588,8.1629,8.1645,8.1704,8.179,8.1842,8.1942,8.2022,8.2096,8.2126,8.2108,8.2107,8.2129,8.213,8.2122,8.2127,8.1872,8.2101,8.2099,8.2098,8.2097,8.2096,8.1388,8.1456,8.1514,8.1596,8.1641,8.1696,8.1761,8.179,8.1862,8.1946,8.1946,8.204,8.2094,8.2191,8.2227,8.2298,8.2271,8.2303,8.2311,8.2318,8.2326,8.2111,8.2312,8.2311,8.2311,8.2311,8.231,0,8.1582,8.1618,8.1694,8.1777,8.1841,8.1821,8.1883,8.1938,8.2021,8.2074,8.214,8.2238,8.2316,8.2352,8.2428,8.2479,8.2472,8.2498,8.2494,8.2501,8.2346,8.2319,8.2503,8.2503,8.2503,8.2503,8.2503,8.2503,8.169,8.1803,8.1818,8.1952,8.1987,8.2081,8.2118,8.2168,8.221,8.2322,8.2387,8.2411,8.2456,8.2536,8.2606,8.2615,8.2643,8.2674,8.2678,8.2532,8.2512,8.2494,8.2468,8.268,8.268,8.2827,8.2828,8.2829]}]]